Location: Conflandey
(47.7287°N, 6.0456°E)
Time: 21:28:32
(UTC+00:00)

Cosmos 371 Rocket - Pass Details

Date: 24 October 2021
Orbit: 684 x 699 km, 74.0° (Epoch: 04 December)

Event Time Altitude Azimuth Distance (km) Brightness Sun altitude
Rises 18:05:46 0° 213° (SSW) 3,059 7.1 -16.5°
Reaches altitude 10° 18:08:07 10° 217° (SW) 2,148 6.3 -16.9°
Maximum altitude 18:12:53 57° 296° (WNW) 823 3.9 -17.7°
Drops below altitude 10° 18:17:42 10° 16° (NNE) 2,171 5.7 -18.5°
Sets 18:20:05 0° 20° (NNE) 3,094 6.5 -18.9°
